Weather History for Livingston, MT

Change the Weather History Date:

Thursday, July 4, 2013

  Actual Average Record
Temperature  
Mean Temperature 76 °F 64 °F  
Max Temperature 95 °F 81 °F 100 °F (2008)
Min Temperature 57 °F 48 °F 35 °F (1972)
Cooling Degree Days 11 2  
Month to date cooling degree days 44 8  
Year to date cooling degree days 94 28  
Since 1 June cooling degree days 86 27  
Growing Degree Days 25 (Base 50)    
Moisture  
Dew Point 47 °F    
Average Humidity 41    
Maximum Humidity 67    
Minimum Humidity 14    
Precipitation  
Precipitation 0.00 in 0.05 in 0.80 in (2004)
Month to date precipitation 0.00 0.22  
Year to date precipitation 5.82 8.87  
Sea Level Pressure  
Sea Level Pressure 29.79 in    
Wind  
Wind Speed 6 mph (NW)    
Max Wind Speed 25 mph    
Max Gust Speed 29 mph    
Visibility 10 miles    
Events      
T = Trace of Precipitation, MM = Missing Value Source: NWS Daily Summary

Daily Weather History Graph

Daily Weather History Graph

Search for Another Location

Airport:

Trip Planner

Search our weather history database for the weather conditions in past years. The results will help you decide how hot, cold, wet, or windy it might be!

Date:

Astronomy

Jul. 04, 2013 Rise Set
Actual Time 5:38 AM MDT 9:14 PM MDT
Civil Twilight 5:00 AM MDT 9:51 PM MDT
Nautical Twilight 4:10 AM MDT 10:41 PM MDT
Astronomical Twilight 3:03 AM MDT 11:48 PM MDT
Moon 3:01 AM MDT (7/4) 6:18 PM MDT (7/4)
Length of Visible Light 16h 51m
Length of Day
15h 35m
Waning Crescent, 11% of the Moon is Illuminated
Jul 4
Waning Crescent
Jul 8
New
Jul 15
First Quarter
Jul 22
Full
Jul 29
Last Quarter

Hourly Weather History & Observations

Time (MDT) Temp. Dew Point Humidity Pressure Visibility Wind Dir Wind Speed Gust Speed Precip Events Conditions
12:53 AM 66.9 °F 50.0 °F 54% 29.82 in 10.0 mi West 4.6 mph - N/A   Clear
1:53 AM 66.9 °F 48.0 °F 51% 29.83 in 10.0 mi SE 5.8 mph - N/A   Clear
2:53 AM 66.9 °F 48.0 °F 51% 29.83 in 10.0 mi Calm Calm - N/A   Mostly Cloudy
3:53 AM 63.0 °F 48.9 °F 60% 29.86 in 10.0 mi Calm Calm - N/A   Mostly Cloudy
4:53 AM 59.0 °F 48.9 °F 69% 29.86 in 10.0 mi NW 8.1 mph - N/A   Partly Cloudy
5:53 AM 57.0 °F 46.9 °F 69% 29.88 in 10.0 mi West 3.5 mph - N/A   Clear
6:53 AM 60.1 °F 46.9 °F 62% 29.88 in 10.0 mi NW 5.8 mph - N/A   Clear
7:53 AM 68.0 °F 50.0 °F 52% 29.87 in 10.0 mi Calm Calm - N/A   Clear
8:53 AM 75.0 °F 48.9 °F 40% 29.86 in 10.0 mi Calm Calm - N/A   Clear
9:53 AM 80.1 °F 48.0 °F 32% 29.85 in 10.0 mi NNE 3.5 mph - N/A   Clear
10:53 AM 84.0 °F 45.0 °F 25% 29.82 in 10.0 mi WNW 6.9 mph - N/A   Clear
11:53 AM 86.0 °F 44.1 °F 23% 29.81 in 10.0 mi NW 4.6 mph - N/A   Clear
12:53 PM 91.0 °F 44.1 °F 20% 29.77 in 10.0 mi WNW 9.2 mph - N/A   Clear
1:53 PM 90.0 °F 44.1 °F 20% 29.75 in 10.0 mi Variable 5.8 mph 16.1 mph N/A   Clear
2:53 PM 91.9 °F 41.0 °F 17% 29.73 in 10.0 mi WNW 8.1 mph - N/A   Clear
3:53 PM 93.0 °F 37.9 °F 15% 29.71 in 10.0 mi Calm Calm - N/A   Clear
4:53 PM 91.0 °F 37.9 °F 15% 29.70 in 10.0 mi NNW 10.4 mph 26.5 mph N/A   Clear
5:53 PM 90.0 °F 39.0 °F 17% 29.70 in 10.0 mi North 11.5 mph - N/A   Clear
6:32 PM 84.2 °F 46.4 °F 27% 29.86 in 10.0 mi South 8.1 mph 25.3 mph N/A   Clear
6:53 PM 86.0 °F 46.0 °F 25% 29.71 in 10.0 mi SW 11.5 mph - N/A   Clear
7:53 PM 80.1 °F 48.9 °F 34% 29.72 in 10.0 mi SE 8.1 mph - N/A   Clear
8:53 PM 78.1 °F 54.0 °F 43% 29.70 in 10.0 mi East 9.2 mph - N/A   Partly Cloudy
9:53 PM 75.0 °F 54.0 °F 48% 29.71 in 10.0 mi ESE 8.1 mph - N/A   Clear
10:53 PM 71.1 °F 55.0 °F 57% 29.71 in 10.0 mi ESE 9.2 mph - N/A   Clear
11:53 PM 66.9 °F 54.0 °F 63% 29.71 in 10.0 mi SE 4.6 mph - N/A   Clear